Location: Unspecified
(0.0000°N, 0.0000°E)
Time: 12:13:51
(UTC+00:00)

Hubble Space Telescope - Pass Details

Date: 29 March 2020
Orbit: 536 x 540 km, 28.5° (Epoch: 01 April)

Event Time Altitude Azimuth Distance (km) Brightness Sun altitude
Rises 19:03:04 0° 227° (SW) 2,670 5.0 -14.6°
Reaches altitude 10° 19:05:27 10° 219° (SW) 1,779 3.9 -15.2°
Maximum altitude 19:09:17 37° 150° (SSE) 829 1.4 -16.1°
Enters shadow 19:10:23 31° 114° (ESE) 944 1.5 -16.4°
